Zurück zum Katalog

STARLINK-33761

AktivKommunikationVLEO
NORAD 63455·PAYLOAD·🇺🇸 United States

Gestartet Apr 4, 2025 von Vandenberg Space Force Base

Loading…

Nächste Überflüge (nächste 24 Stunden)

TLE

AktuellSource: CelesTrak SupGP

Epoche: Sep 14, 2026, 21:12 UTC

1 63455C 25069Y   26257.88381944 -.00017449  00000+0 -51557-3 0  2571
2 63455  53.1589 335.9089 0001126  76.4567 168.7396 15.34398083    13

Verfolge STARLINK-33761 in Echtzeit mit AllMySat

Download on the App Store